This is the latest recevied weather packets stored in our database for station/object KJ6HT. If no packets are shown the sender has not sent any weather packets the latest 10 day(s).
| Time | Temp. | Humidity | Pressure | Rain* | Wind** | Luminosity | Snow |
|---|---|---|---|---|---|---|---|
| 1788356729 | 15° C | 91% | 1014.2 hPa | 0 mm | - | - | - |
| 1788355877 | 15° C | 90% | 1014.2 hPa | 0 mm | - | - | - |
| 1788354928 | 15° C | 89% | 1014.1 hPa | 0 mm | - | - | - |
| 1788354080 | 15° C | 90% | 1014.1 hPa | 0 mm | - | - | - |
| 1788353158 | 15° C | 91% | 1014.2 hPa | 0 mm | - | - | - |
| 1788352206 | 15° C | 90% | 1014.1 hPa | 0 mm | - | - | - |
| 1788350433 | 15° C | 90% | 1014.1 hPa | 0 mm | - | - | - |
| 1788349535 | 15.56° C | 89% | 1014.2 hPa | 0 mm | - | - | - |
| 1788348659 | 15.56° C | 89% | 1014.2 hPa | 0 mm | - | - | - |
| 1788347720 | 16.11° C | 88% | 1014.3 hPa | 0 mm | - | - | - |
| 1788346874 | 16.67° C | 88% | 1014.4 hPa | 0 mm | - | - | - |
| 1788345981 | 16.67° C | 87% | 1014.5 hPa | 0 mm | - | - | - |
| 1788345031 | 17.22° C | 87% | 1014.6 hPa | 0 mm | - | - | - |
| 1788344178 | 17.22° C | 87% | 1014.6 hPa | 0 mm | - | - | - |
| 1788343250 | 16.67° C | 87% | 1014.7 hPa | 0 mm | - | - | - |
| 1788342318 | 16.67° C | 86% | 1014.6 hPa | 0 mm | - | - | - |
| 1788341481 | 17.22° C | 85% | 1014.6 hPa | 0 mm | - | - | - |
| 1788340523 | 17.22° C | 85% | 1014.5 hPa | 0 mm | - | - | - |
| 1788339689 | 17.22° C | 84% | 1014.5 hPa | 0 mm | - | - | - |
| 1788338776 | 17.78° C | 84% | 1014.6 hPa | 0 mm | - | - | - |
| 1788337835 | 17.78° C | 84% | 1014.7 hPa | 0 mm | - | - | - |
| 1788336984 | 17.78° C | 82% | 1014.7 hPa | 0 mm | - | - | - |
| 1788336020 | 17.78° C | 81% | 1014.5 hPa | 0 mm | - | - | - |
| 1788335175 | 18.33° C | 80% | 1014.4 hPa | 0 mm | - | - | - |
| 1788334232 | 18.89° C | 79% | 1014.2 hPa | 0 mm | - | - | - |
* Rain latest hour (hover to see other rain measurements)
** Current wind speed in m/s (hover to see current wind gust speed)